SCP
1 1 1 1 0 1 1 1 1 1 1 1 1 0 0 0 0 0 0 0 0 0 0 0 0 0 0 0 0 0 0 0 0 0 0 0 0 0 0 0 0 0 0
1 1 1 1 1 1 1 1 1 1 1 1 1 0 0 0 0 0 0 0 0 0 0 0 0 0 0 0 0 0 0 0 0 0 0 0 0 0 0 0 0 0 0
1 2 2 1 1 1 1 1 1 1 1 1 1 0 0 0 0 0 0 0 0 0 0 0 0 0 0 0 0 0 0 0 0 0 0 0 0 0 0 0 0 0 0
2 2 2 1 1 1 1 1 1 1 1 1 1 0 0 0 0 0 0 0 0 0 0 0 0 0 0 0 0 0 0 0 0 0 0 0 0 0 0 0 0 0 0
2 3 2 2 1 1 1 1 1 1 1 1 0 0 0 0 0 0 0 0 0 0 0 0 0 0 0 0 0 0 0 0 0 0 0 0 0 0 0 0 0 0 0
2 3 2 2 1 1 1 1 1 1 1 0 0 0 0 0 0 0 0 0 0 0 0 0 0 0 0 0 0 0 0 0 0 0 0 0 0 0 0 0 0 0 0
3 3 2 2 1 1 1 1 1 1 1 0 0 0 0 0 0 0 0 0 0 0 0 0 0 0 0 0 0 0 0 0 0 0 0 0 0 0 0 0 0 0 0
2 3 2 2 1 1 1 1 1 1 1 1 0 0 0 0 0 0 0 0 0 0 0 0 0 0 0 0 0 0 0 0 0 0 0 0 0 0 0 0 0 0 0
2 2 2 1 1 1 1 1 1 1 1 1 1 0 0 0 0 0 0 0 0 0 0 0 0 0 0 0 0 0 0 0 0 0 0 0 0 0 0 0 0 0 0
2 2 2 1 1 1 1 1 1 1 1 1 1 0 0 0 0 0 0 0 0 0 0 0 0 0 0 0 0 0 0 0 0 0 0 0 0 0 0 0 0 0 0
2 2 2 2 2 1 1 1 1 1 1 1 0 0 0 0 0 0 0 0 0 0 0 0 0 0 0 0 0 0 0 0 0 0 0 0 0 0 0 0 0 0 0
3 3 2 2 2 2 1 1 1 1 1 1 1 0 0 0 0 0 0 0 0 0 0 0 0 0 0 0 0 0 0 0 0 0 0 0 0 0 0 0 0 0 0
3 3 2 2 2 2 2 1 1 1 1 1 1 1 1 1 0 0 0 0 0 0 0 0 0 0 0 0 0 0 0 0 0 0 0 0 0 0 0 0 0 0 0
3 3 3 3 3 2 2 2 1 2 1 1 1 1 1 1 1 0 0 0 0 0 0 0 0 0 0 0 0 0 0 0 0 0 0 0 0 0 0 0 0 0 0
3 3 3 3 3 2 2 2 1 1 2 1 1 1 1 1 1 1 0 0 0 0 0 0 0 0 0 0 0 0 0 0 0 0 0 0 0 0 0 0 0 0 0
4 3 3 2 2 2 2 2 1 1 2 1 1 1 1 1 1 1 0 0 0 0 0 0 0 0 0 0 0 0 0 0 0 0 0 0 0 0 0 0 0 0 0
4 3 3 2 2 2 2 2 2 2 2 1 1 1 1 1 1 1 0 0 0 0 0 0 0 0 0 0 0 0 0 0 0 0 0 0 0 0 1 1 1 1 0
3 3 3 2 2 2 2 2 2 2 2 1 1 1 1 1 1 1 0 0 0 0 0 0 0 0 0 0 0 0 0 0 0 0 0 0 0 0 1 1 1 1 0
3 3 3 2 2 2 2 2 2 2 2 1 1 1 1 1 1 1 1 0 0 0 0 0 0 0 0 0 0 0 0 0 0 0 0 0 0 1 1 1 1 1 0
3 3 3 2 2 2 2 2 2 2 1 1 1 1 1 1 1 1 1 1 0 0 0 0 0 0 0 0 0 0 0 0 0 0 0 0 0 0 0 0 1 1 1
3 3 2 2 2 2 3 3 2 2 1 1 1 1 1 1 1 1 1 1 1 0 0 0 0 0 0 0 0 0 0 0 0 0 0 0 0 0 0 0 1 1 1
3 3 3 2 2 3 3 3 3 2 2 1 1 2 2 1 1 1 1 1 1 0 0 0 0 0 0 0 0 0 0 0 0 0 0 0 0 0 0 0 0 1 1
2 2 2 2 2 3 3 3 3 3 2 2 1 2 2 2 1 1 1 1 1 0 0 0 0 0 0 0 0 0 0 0 0 0 0 0 0 0 0 0 0 0 0
2 2 2 2 3 3 3 3 3 2 2 2 1 1 1 2 1 2 2 1 1 1 0 0 0 0 0 0 0 0 0 0 0 0 0 0 0 0 0 0 0 0 0
1 1 2 2 3 3 3 3 2 2 2 1 1 1 1 1 1 2 2 2 1 1 1 0 0 0 0 0 0 0 0 0 0 0 0 0 0 0 0 0 0 0 0
1 1 2 2 3 3 3 3 2 2 1 2 1 1 1 1 1 2 2 2 2 1 1 1 1 0 0 0 0 0 0 0 0 0 0 0 0 0 0 0 0 0 0
Wind_Speed
15 17 17 15 14 14 14 14 14 15 15 15 14 14 13 12 11 10 10 9 9 8 8 8 8 8 9 9 9 10 10 11 12 13 13 14 14 14 14 13 13 14 15
18 19 19 16 15 15 14 14 14 15 15 14 14 13 12 11 11 10 10 9 9 9 8 9 9 9 9 9 9 9 10 11 11 12 13 13 14 13 11 9 10 13 14
20 20 19 16 16 15 15 15 14 15 14 14 13 13 12 11 10 10 10 9 9 9 9 9 9 9 9 9 9 9 9 10 11 11 11 11 12 12 11 12 15 14 14
20 19 18 18 16 16 15 15 15 15 14 13 13 12 11 11 10 10 10 9 9 9 9 9 9 9 8 9 9 9 9 10 10 8 7 9 11 12 12 13 13 13 13
19 18 18 19 17 16 15 15 14 14 14 13 13 12 11 11 10 10 10 10 9 9 9 9 9 9 8 8 8 9 9 9 7 6 7 8 10 11 12 12 12 12 12
19 18 20 18 18 16 16 15 14 14 14 13 12 11 11 10 10 10 9 9 9 9 9 9 8 8 8 7 7 8 8 7 8 6 7 7 9 11 11 11 11 12 11
18 17 20 18 18 17 16 15 14 14 13 13 12 11 10 10 10 9 9 9 9 9 9 8 8 7 7 6 7 7 6 5 3 6 6 7 9 10 10 10 10 11 11
17 17 18 18 17 17 16 15 14 14 13 12 11 11 10 10 9 9 9 8 8 8 8 8 7 6 6 6 6 6 6 5 5 6 6 8 10 8 10 10 10 10 10
15 15 16 16 16 16 15 15 14 13 13 12 11 10 10 9 9 8 8 8 8 7 7 7 6 6 5 5 5 5 5 4 3 5 5 7 10 8 9 9 9 9 9
13 13 14 14 14 14 14 14 13 13 12 12 11 10 9 9 8 8 8 8 7 7 6 6 6 5 5 5 5 5 5 6 3 6 4 9 9 8 9 9 8 9 9
12 11 13 13 12 12 12 13 13 13 12 12 10 10 8 7 8 7 8 7 6 6 6 5 5 4 4 6 5 4 6 4 3 3 4 11 8 7 8 8 8 8 8
15 13 11 12 12 11 9 10 9 9 10 8 7 8 5 4 3 5 9 5 5 5 6 5 4 5 7 5 8 7 4 3 3 3 6 10 7 7 7 7 8 8 8
15 13 12 11 11 10 7 7 6 5 6 7 7 6 4 4 4 4 4 5 5 6 4 6 6 4 3 1 1 3 1 2 2 2 7 8 7 7 7 7 7 7 7
15 13 12 11 10 9 8 7 6 6 6 6 7 6 5 3 2 2 2 2 3 3 2 2 2 2 1 2 2 2 3 2 2 2 6 8 6 6 7 7 7 7 7
14 13 12 11 10 8 7 6 6 6 6 6 6 5 4 3 3 3 2 1 1 2 3 2 2 2 2 3 3 3 3 2 2 3 5 7 7 7 7 7 7 7 7
15 14 12 11 11 10 8 6 5 6 5 5 5 6 5 3 3 3 3 2 1 1 1 1 2 2 2 2 2 3 3 3 3 3 4 7 7 7 7 7 7 8 7
14 14 13 12 11 10 9 8 6 5 6 5 5 5 5 4 4 3 3 3 2 2 2 2 2 2 3 3 3 3 3 2 3 3 3 3 6 8 8 7 7 8 8
13 13 12 11 11 10 8 7 5 5 5 4 4 5 5 4 4 3 3 3 2 2 2 2 2 2 2 2 2 2 3 3 3 4 4 4 3 5 8 8 7 8 8
13 13 12 11 11 10 9 7 6 5 5 4 4 5 5 5 5 4 2 2 3 2 2 2 2 2 3 2 3 3 2 2 3 3 3 4 4 3 4 8 8 7 9
12 12 12 12 11 10 8 6 5 5 5 5 4 5 6 5 5 4 4 3 4 3 2 1 2 2 2 2 2 3 2 2 2 2 4 4 4 5 5 5 7 7 8
12 12 11 12 11 9 8 8 7 7 6 5 5 6 6 5 5 4 3 4 4 2 2 3 3 5 4 3 3 4 4 3 2 2 2 2 3 4 4 4 4 3 6
13 12 12 12 12 11 8 7 6 6 5 5 5 6 6 6 6 5 3 4 4 3 3 3 3 3 3 3 3 3 4 5 5 3 3 3 2 3 4 5 4 3 3
12 12 11 12 12 11 11 7 7 6 5 6 6 6 6 6 6 4 5 3 3 4 4 3 4 5 3 4 3 3 3 2 4 5 3 3 3 2 3 4 5 4 4
11 11 11 12 12 11 11 10 11 9 8 8 7 6 7 7 6 6 5 4 4 2 3 5 4 3 4 4 4 2 3 3 2 3 5 5 4 3 2 3 4 4 4
11 11 11 11 12 12 12 12 11 9 7 7 7 8 7 7 7 6 6 5 4 3 3 2 3 4 4 4 3 4 3 3 5 3 3 4 5 4 4 4 2 3 3
10 11 11 12 11 12 12 12 12 11 10 9 9 9 8 6 7 8 7 6 5 4 4 3 3 4 3 2 3 3 4 4 4 4 3 4 4 4 4 3 4 3 3
Wind_Direction
158 149 148 152 147 140 135 132 132 133 133 134 135 135 134 133 131 126 119 113 108 104 101 98 97 97 99 102 103 105 107 111 114 114 113 113 113 114 116 123 124 110 112
152 147 150 153 149 144 138 134 132 133 133 133 134 133 133 133 130 126 121 116 112 107 104 102 100 100 102 104 106 108 110 113 115 118 120 117 114 115 117 113 98 108 116
150 146 153 153 151 146 141 137 135 134 134 133 133 133 133 132 128 124 121 117 113 109 106 104 102 103 104 106 109 110 112 114 118 126 139 127 116 116 113 105 106 117 116
151 150 154 150 151 147 143 140 138 136 135 133 133 132 132 131 129 127 122 119 113 108 106 105 104 103 105 107 112 113 115 116 123 159 149 121 122 119 119 116 118 118 117
151 150 144 153 151 148 145 143 141 138 136 134 133 132 131 129 128 123 119 117 114 109 106 104 103 103 105 108 113 116 119 122 145 188 108 111 113 122 123 122 122 122 121
151 152 144 155 152 150 148 145 143 140 138 136 134 133 130 128 124 120 118 116 112 107 104 102 102 104 105 108 115 120 124 142 191 126 115 121 118 128 127 125 125 124 123
155 152 146 155 152 151 150 148 145 142 141 138 136 134 130 125 120 118 115 113 109 106 104 101 100 101 103 108 117 123 132 179 187 118 123 117 113 128 130 128 125 126 126
156 151 144 153 154 153 151 151 148 144 141 140 137 133 130 124 121 117 114 114 111 108 106 103 101 100 101 102 112 128 141 215 153 127 130 116 112 131 130 128 128 130 131
155 149 148 156 156 155 154 153 150 146 144 140 137 132 129 128 125 121 119 117 117 115 113 109 104 99 96 96 106 127 149 250 191 128 134 113 123 137 134 132 134 135 135
155 152 153 160 156 159 157 155 152 148 146 142 139 138 134 133 131 129 140 120 121 121 120 118 113 106 100 98 107 130 158 218 176 144 137 116 132 147 143 142 144 143 141
160 158 162 158 159 162 158 153 156 152 148 150 148 145 162 160 144 154 109 115 124 122 121 120 121 121 139 135 122 142 188 215 147 133 112 113 145 157 153 151 153 151 148
165 167 166 160 162 163 157 154 162 161 157 168 151 156 163 136 136 123 113 123 125 129 135 128 134 174 220 173 153 186 200 189 154 150 115 129 156 167 163 162 160 160 157
166 168 168 165 166 162 158 158 159 153 155 158 151 154 148 154 153 152 150 150 158 171 165 149 185 198 201 144 181 174 149 195 171 151 122 143 166 174 174 171 170 171 168
168 170 169 165 166 167 163 159 160 159 160 155 152 167 158 163 163 137 164 148 170 158 144 171 167 154 167 184 196 168 169 206 177 136 127 153 173 183 182 181 183 183 179
168 169 168 165 164 165 163 171 162 160 160 152 154 159 168 169 166 156 150 164 187 145 165 175 176 153 177 188 192 171 174 172 185 183 133 158 176 185 188 189 190 187 188
171 170 168 171 170 169 168 172 163 161 159 156 159 157 176 170 160 172 169 174 171 166 105 178 158 182 193 170 175 158 179 172 167 193 164 158 173 181 188 193 193 191 195
173 170 171 175 172 172 172 173 169 163 160 161 151 157 174 174 161 183 172 185 159 156 164 193 170 191 191 180 163 161 164 167 155 181 185 173 174 175 182 189 194 197 202
174 171 172 175 171 171 170 174 165 163 157 159 158 158 171 162 171 193 176 167 158 190 183 175 211 191 182 185 164 170 149 156 163 180 184 189 194 175 172 180 194 200 205
173 171 171 174 171 168 167 169 160 153 159 163 165 164 162 170 172 192 174 133 193 195 196 205 169 215 182 180 169 171 177 162 178 184 186 192 185 200 170 163 190 200 207
171 173 173 174 171 166 165 161 156 159 167 169 166 155 165 171 173 187 173 169 211 190 184 179 159 212 206 198 194 152 180 169 200 176 213 190 186 196 191 172 186 186 197
172 177 181 178 172 170 169 172 171 172 173 170 167 159 172 171 167 195 180 166 217 185 189 183 190 177 199 191 197 182 175 187 175 182 201 208 176 187 176 178 206 190 179
178 182 185 181 176 179 176 174 175 166 171 166 165 162 177 174 175 182 186 189 185 169 185 193 216 217 178 201 233 201 186 173 189 172 175 189 191 189 184 181 177 194 232
183 184 187 186 181 182 177 170 161 157 167 166 173 173 177 179 185 185 182 200 179 209 175 199 206 219 201 192 243 256 235 191 158 161 179 176 193 201 196 174 188 179 200
184 184 184 183 182 180 180 180 179 180 182 180 180 169 172 181 186 184 186 190 206 209 162 204 189 217 227 210 190 250 308 350 266 167 181 177 182 202 188 203 174 171 188
185 183 184 181 183 182 187 187 187 190 186 175 178 167 180 178 192 190 188 188 196 202 175 206 172 231 225 239 216 202 208 220 255 264 189 177 186 189 187 206 202 187 177
186 185 183 181 183 186 189 190 193 190 187 178 182 177 186 181 191 192 194 196 202 193 176 191 197 201 244 260 265 238 226 228 229 241 235 218 205 180 189 209 220 204 203